2023/02/20 00:00:00,23.1, 2.8
2023/02/20 00:10:00,23.1, 2.9
2023/02/20 00:20:00,23.2, 2.9
2023/02/20 00:30:00,23.1, 3.0
2023/02/20 00:40:00,23.1, 2.8
2023/02/20 00:50:00,22.6, 3.1
2023/02/20 01:00:00,22.6, 3.2
2023/02/20 01:10:00,22.7, 2.8
2023/02/20 01:20:00,22.7, 3.2
2023/02/20 01:30:00,22.6, 2.9
2023/02/20 01:40:00,22.7, 2.8
2023/02/20 01:50:00,22.6, 2.9
2023/02/20 02:00:00,22.7, 2.7
2023/02/20 02:10:00,22.7, 2.9
2023/02/20 02:20:00,22.5, 2.9
2023/02/20 02:30:00,22.5, 2.8
2023/02/20 02:40:00,22.5, 3.2
2023/02/20 02:50:00,22.6, 2.8
2023/02/20 03:00:00,22.6, 2.8
2023/02/20 03:10:00,22.6, 3.0
2023/02/20 03:20:00,22.6, 2.9
2023/02/20 03:30:00,22.6, 3.0
2023/02/20 03:40:00,22.9, 2.8
2023/02/20 03:50:00,23.0, 2.9
2023/02/20 04:00:00,23.0, 2.8
2023/02/20 04:10:00,22.9, 2.8
2023/02/20 04:20:00,22.9, 2.5
2023/02/20 04:30:00,22.8, 2.6
2023/02/20 04:40:00,22.8, 2.6
2023/02/20 04:50:00,22.7, 2.6
2023/02/20 05:00:00,22.6, 2.8
2023/02/20 05:10:00,22.5, 2.7
2023/02/20 05:20:00,22.5, 2.7
2023/02/20 05:30:00,22.5, 2.6
2023/02/20 05:40:00,22.5, 2.8
2023/02/20 05:50:00,22.6, 2.7
2023/02/20 06:00:00,22.6, 2.7
2023/02/20 06:10:00,22.5, 2.9
2023/02/20 06:20:00,22.4, 3.0
2023/02/20 06:30:00,22.6, 2.5
2023/02/20 06:40:00,22.6, 2.7
2023/02/20 06:50:00,22.6, 2.6
2023/02/20 07:00:00,22.8, 2.5
2023/02/20 07:10:00,23.0, 2.6
2023/02/20 07:20:00,22.8, 2.4
2023/02/20 07:30:00,22.7, 2.3
2023/02/20 07:40:00,22.7, 2.4
2023/02/20 07:50:00,22.9, 2.1
2023/02/20 08:00:00,23.0, 2.1
2023/02/20 08:10:00,22.8, 2.0
2023/02/20 08:20:00,22.9, 2.3
2023/02/20 08:30:00,23.0, 2.4
2023/02/20 08:40:00,23.1, 2.4
2023/02/20 08:50:00,22.8, 2.9
2023/02/20 09:00:00,23.1, 3.1
2023/02/20 09:10:00,22.8, 2.9
2023/02/20 09:20:00,22.5, 3.1
2023/02/20 09:30:00,22.6, 2.7
2023/02/20 09:40:00,22.5, 2.9
2023/02/20 09:50:00,22.3, 3.1
2023/02/20 10:00:00,22.5, 3.4
2023/02/20 10:10:00,22.4, 3.9
2023/02/20 10:20:00,22.4, 4.2
2023/02/20 10:30:00,22.2, 4.7
2023/02/20 10:40:00,22.2, 4.1
2023/02/20 10:50:00,22.5, 4.1
2023/02/20 11:00:00,22.2, 4.3
2023/02/20 11:10:00,22.3, 3.9
2023/02/20 11:20:00,22.3, 3.8
2023/02/20 11:30:00,22.0, 4.7
2023/02/20 11:40:00,21.6, 7.9
2023/02/20 11:50:00,21.8, 5.7
2023/02/20 12:00:00,22.5, 4.5
2023/02/20 12:10:00,22.3, 6.5
2023/02/20 12:20:00,22.0, 5.1
2023/02/20 12:30:00,22.6, 4.0
2023/02/20 12:40:00,22.3, 4.5
2023/02/20 12:50:00,21.9, 6.3
2023/02/20 13:00:00,21.5, 6.6
2023/02/20 13:10:00,21.6, 7.0
2023/02/20 13:20:00,21.7, 7.9
2023/02/20 13:30:00,21.5, 6.1
2023/02/20 13:40:00,21.8, 5.6
2023/02/20 13:50:00,21.6, 6.1
2023/02/20 14:00:00,21.6, 5.9
2023/02/20 14:10:00,21.9, 4.9
2023/02/20 14:20:00,21.9, 4.9
2023/02/20 14:30:00,21.8, 5.2
2023/02/20 14:40:00,21.4, 5.2
2023/02/20 14:50:00,22.2, 3.4
2023/02/20 15:00:00,22.1, 4.4
2023/02/20 15:10:00,21.4, 6.1
2023/02/20 15:20:00,21.4, 5.0
2023/02/20 15:30:00,21.6, 4.2
2023/02/20 15:40:00,21.9, 3.8
2023/02/20 15:50:00,21.8, 3.9
2023/02/20 16:00:00,21.7, 4.5
2023/02/20 16:10:00,21.9, 3.4
2023/02/20 16:20:00,22.1, 3.0
2023/02/20 16:30:00,22.7, 2.1
2023/02/20 16:40:00,23.1, 1.9
2023/02/20 16:50:00,24.3, 1.4
2023/02/20 17:00:00,24.7, 1.3
2023/02/20 17:10:00,25.1, 1.1
2023/02/20 17:20:00,25.8, 0.9
2023/02/20 17:30:00,27.1, 0.9
2023/02/20 17:40:00,28.6, 0.9
2023/02/20 17:50:00,30.0, 0.9
2023/02/20 18:00:00,31.1, 0.9
2023/02/20 18:10:00,31.8, 1.0
2023/02/20 18:20:00,32.8, 0.8
2023/02/20 18:30:00,33.6, 0.7
2023/02/20 18:40:00,34.7, 0.7
2023/02/20 18:50:00,35.4, 0.7
2023/02/20 19:00:00,36.0, 0.6
2023/02/20 19:10:00,36.6, 0.7
2023/02/20 19:20:00,36.9, 0.6
2023/02/20 19:30:00,37.1, 0.7
2023/02/20 19:40:00,37.4, 0.7
2023/02/20 19:50:00,37.6, 0.8
2023/02/20 20:00:00,38.1, 0.6
2023/02/20 20:10:00,37.9, 0.6
2023/02/20 20:20:00,37.8, 0.6
2023/02/20 20:30:00,37.7, 0.6
2023/02/20 20:40:00,37.8, 1.0
2023/02/20 20:50:00,37.9, 0.7
2023/02/20 21:00:00,37.9, 0.3
2023/02/20 21:10:00,38.1, 0.4
2023/02/20 21:20:00,38.5, 0.5
2023/02/20 21:30:00,38.6, 0.1
2023/02/20 21:40:00,38.8, 0.1
2023/02/20 21:50:00,38.8, 0.1
2023/02/20 22:00:00,39.3, 0.6
2023/02/20 22:10:00,39.6, 0.3
2023/02/20 22:20:00,39.5, 0.3
2023/02/20 22:30:00,39.4, 0.4
2023/02/20 22:40:00,39.3,-0.1
2023/02/20 22:50:00,39.3,-0.2
2023/02/20 23:00:00,39.5,-0.2
2023/02/20 23:10:00,39.5,-0.1
2023/02/20 23:20:00,39.5, 0.1
2023/02/20 23:30:00,39.5, 0.0
2023/02/20 23:40:00,39.4,-0.2
2023/02/20 23:50:00,39.4,-0.2
